Effective Sunday, March 17, 2024, the National Weather Service National Data Buoy Center will discontinue its Dial-A-Buoy Interactive Voice Response system. For more information, see Service Change Notice 24-06 (PDF).

Station YGNN6 - Niagara Coast Guard Station, NY Image indicating link to RSS feed of recent meteorological observations for station YGNN6


Conditions at YGNN6 as of
(6:00 pm EST)
2300 GMT on 03/01/2024:
     

Click on the graph icon in the table below to see a time series plot of the last five days of that observation.

5-day plot - Wind Direction Wind Direction (WDIR): E ( 80 deg true )
5-day plot - Wind Speed Wind Speed (WSPD): 1.9 kts
5-day plot - Wind Gust Wind Gust (GST): 8.0 kts
5-day plot - Atmospheric Pressure Atmospheric Pressure (PRES):30.25 in
5-day plot - Pressure Tendency Pressure Tendency (PTDY):-0.07 in ( Falling )
5-day plot - Air Temperature Air Temperature (ATMP): 40.8 °F
5-day plot - Wind Speed at 10 Meters Wind Speed at 10 meters (WSPD10M): 1.9 kts
5-day plot - Wind Speed at 20 Meters Wind Speed at 20 meters (WSPD20M): 1.9 kts
5-day plot -  Wind Speed, Wind Gust and Atmospheric Pressure Combined plot of Wind Speed, Gust, and Air Pressure
Previous observations
TIME
(EST)
5-day plot - Wind Direction
WDIR
 
5-day plot - Wind Speed
WSPD
kts
5-day plot - Wind Gust
GST
kts
5-day plot - Wave Height
WVHT
ft
5-day plot - Dominant Wave Period
DPD
sec
5-day plot - Average Wave Period
APD
sec
5-day plot - Mean Wave Direction
MWD
 
5-day plot - Atmospheric Pressure
PRES
in
5-day plot - Pressure Tendency
PTDY
in
5-day plot - Air Temperature
ATMP
°F
5-day plot - Water Temperature
WTMP
°F
5-day plot - Dew Point
DEWP
°F
5-day plot - Salinity
SAL
psu
5-day plot - Visibility
VIS
nmi
5-day plot - Tide (above MLLW)
TIDE
ft
2024-03-01 05:50 pm NE 7.0 8.9----30.26- 41.2-----
2024-03-01 05:40 pm NE 7.0 8.9----30.26- 41.4-----
2024-03-01 05:30 pm NE 8.0 9.9----30.27- 41.9-----
2024-03-01 05:20 pm NE 7.0 12.0----30.27- 42.4-----
2024-03-01 05:10 pm NE 8.0 12.0----30.27- 42.1-----
2024-03-01 05:00 pm NE 8.0 11.1----30.27-0.06 42.1-----
2024-03-01 04:50 pm NE 6.0 8.0----30.27- 43.5-----
2024-03-01 04:40 pmESE 1.9 9.9----30.27- 51.4-----
2024-03-01 04:30 pmESE 4.1 9.9----30.28- 50.7-----
2024-03-01 04:20 pm SE 8.0 9.9----30.28- 49.3-----
2024-03-01 04:10 pmSSE 7.0 9.9----30.28- 49.8-----
2024-03-01 04:00 pmSSE 6.0 8.9----30.29-0.07 49.8-----
2024-03-01 03:50 pm SE 8.9 12.0----30.29- 50.0-----
2024-03-01 03:40 pmSSE 8.9 12.0----30.30- 50.5-----
2024-03-01 03:30 pmSSE 8.0 9.9----30.30- 50.5-----
2024-03-01 03:20 pmSSE 7.0 11.1----30.30- 50.0-----
2024-03-01 03:10 pmSSE 8.9 11.1----30.31- 49.5-----
2024-03-01 03:00 pmSSE 8.0 11.1----30.32-0.07 48.9-----
2024-03-01 02:50 pmSSE 9.9 12.0----30.32- 48.6-----
2024-03-01 02:40 pmSSE 11.1 13.0----30.32- 48.2-----
2024-03-01 02:30 pmSSE 8.9 11.1----30.33- 48.0-----
2024-03-01 02:20 pmSSW 5.1 12.0----30.33- 48.7-----
2024-03-01 02:10 pm S 8.9 13.0----30.33- 48.4-----
2024-03-01 02:00 pm S 9.9 13.0----30.33-0.08 47.8-----
2024-03-01 01:50 pmSSE 9.9 13.0----30.34- 47.3-----
2024-03-01 01:40 pm S 9.9 14.0----30.35- 47.5-----
2024-03-01 01:30 pm S 11.1 14.0----30.35- 47.5-----
2024-03-01 01:20 pmSSW 9.9 15.9----30.34- 46.8-----
2024-03-01 01:10 pmSSW 8.9 15.0----30.35- 46.9-----
2024-03-01 01:00 pm S 11.1 15.0----30.36-0.06 46.8-----
2024-03-01 12:50 pmSSW 9.9 15.0----30.37- 46.2-----
2024-03-01 12:40 pm S 11.1 15.9----30.37- 45.9-----
2024-03-01 12:30 pm S 8.9 17.1----30.38- 45.5-----
2024-03-01 12:20 pm S 11.1 17.1----30.38- 45.3-----
2024-03-01 12:10 pm S 12.0 15.9----30.39- 45.1-----
2024-03-01 12:00 pm S 9.9 18.1----30.39-0.04 45.0-----
2024-03-01 11:50 am S 11.1 19.0----30.40- 44.8-----
2024-03-01 11:40 am S 15.0 22.0----30.40- 44.2-----
2024-03-01 11:30 am S 14.0 20.0----30.40- 43.9-----
2024-03-01 11:20 am S 13.0 19.0----30.41- 43.7-----
2024-03-01 11:10 am S 13.0 18.1----30.41- 43.2-----
2024-03-01 11:00 am S 11.1 17.1----30.41-0.01 42.8-----
2024-03-01 10:50 am S 13.0 19.0----30.41- 42.1-----
2024-03-01 10:40 am S 9.9 17.1----30.42- 41.7-----
2024-03-01 10:30 am S 9.9 15.9----30.41- 41.2-----
2024-03-01 10:20 am S 11.1 17.1----30.42- 40.6-----
2024-03-01 10:10 am S 11.1 15.9----30.42- 40.1-----
2024-03-01 10:00 amSSE 12.0 17.1----30.42+0.02 39.7-----
2024-03-01 09:50 am S 13.0 20.0----30.43- 39.4-----
2024-03-01 09:40 am S 8.9 15.9----30.43- 39.0-----
2024-03-01 09:30 am S 9.9 18.1----30.43- 38.5-----
2024-03-01 09:20 am S 13.0 17.1----30.43- 37.8-----
2024-03-01 09:10 am S 11.1 19.0----30.43- 37.4-----
2024-03-01 09:00 am S 14.0 15.9----30.43+0.03------
2024-03-01 08:50 am S 11.1 14.0----30.43-------
2024-03-01 08:40 am S 8.9 15.0----30.43-------
2024-03-01 08:30 am S 8.0 13.0----30.43-------
2024-03-01 08:20 am S 8.9 14.0----30.43-------
2024-03-01 08:10 amSSE 8.0 13.0----30.42-------
2024-03-01 08:00 amSSE 8.0 11.1----30.42+0.02------
2024-03-01 07:50 am S 8.0 11.1----30.42-------
2024-03-01 07:40 amSSE 7.0 11.1----30.42-------
2024-03-01 07:30 am S 8.0 13.0----30.41-------
2024-03-01 07:20 amSSE 8.9 12.0----30.41-------
2024-03-01 07:10 amSSE 8.0 12.0----30.41-------
2024-03-01 07:00 amSSE 8.0 9.9----30.40+0.01------
2024-03-01 06:50 amSSE 7.0 9.9----30.40-------
2024-03-01 06:40 amSSE 7.0 8.9----30.40-------
2024-03-01 06:30 amSSE 7.0 8.9----30.40-------
2024-03-01 06:10 amSSE 8.0 11.1----30.40-------
2024-03-01 06:00 amSSE 7.0 9.9----30.40+0.01------
2024-03-01 05:50 amSSE 6.0 8.9----30.40-------
2024-03-01 05:40 amSSE 7.0 9.9----30.40-------
2024-03-01 05:30 am S 6.0 9.9----30.40-------
2024-03-01 05:20 amSSE 7.0 8.9----30.40-------
2024-03-01 05:10 amSSE 7.0 8.9----30.40-------
2024-03-01 05:00 amSSE 6.0 7.0----30.40+0.00------
2024-03-01 04:50 am S 5.1 7.0----30.40-------
2024-03-01 04:40 amSSE 5.1 7.0----30.40-------
2024-03-01 04:30 amSSE 5.1 8.0----30.39-------
2024-03-01 04:20 amSSE 4.1 6.0----30.39-------
2024-03-01 04:10 amSSE 4.1 6.0----30.39-------
2024-03-01 04:00 amSSE 2.9 4.1----30.39-0.01------
2024-03-01 03:50 amSSE 2.9 5.1----30.39-------
2024-03-01 03:40 am SE 2.9 4.1----30.39-------
2024-03-01 03:30 amSSE 2.9 4.1----30.39-------
2024-03-01 03:20 amSSE 2.9 4.1----30.39-------
2024-03-01 03:10 amSSE 2.9 5.1----30.40-------
2024-03-01 03:00 amSSE 2.9 4.1----30.39-0.01------
2024-03-01 02:50 amSSE 2.9 4.1----30.40-------
2024-03-01 02:40 am S 2.9 4.1----30.40-------
2024-03-01 02:30 am S 2.9 4.1----30.40-------
2024-03-01 02:20 am S 2.9 5.1----30.40-------
2024-03-01 02:10 amSSE 2.9 5.1----30.40-------
2024-03-01 02:00 am S 4.1 5.1----30.40+0.01------
2024-03-01 01:50 am S 2.9 5.1----30.40-------
2024-03-01 01:40 am S 2.9 5.1----30.40-------
2024-03-01 01:30 am S 2.9 4.1----30.40-------
2024-03-01 01:20 amSSE 1.9 5.1----30.40-------
2024-03-01 01:10 am S 2.9 5.1----30.40-------
2024-03-01 01:00 am S 2.9 4.1----30.40+0.01------
2024-03-01 12:50 amSSE 1.9 2.9----30.40-------
2024-03-01 12:40 amSSE 1.9 4.1----30.40-------
2024-03-01 12:30 am S 2.9 4.1----30.40-------
2024-03-01 12:20 am S 2.9 4.1----30.40-------
2024-03-01 12:10 am S 2.9 5.1----30.40-------
2024-03-01 12:00 am S 4.1 6.0----30.40-0.02------
2024-02-29 11:50 pm S 4.1 7.0----30.40-------
2024-02-29 11:40 pmSSE 4.1 7.0----30.40-------
2024-02-29 11:30 pm S 4.1 7.0----30.40-------
2024-02-29 11:20 pmSSE 4.1 7.0----30.39-------
2024-02-29 11:10 pmSSE 4.1 5.1----30.40-------
2024-02-29 11:00 pmSSE 4.1 5.1----30.39-0.02------
2024-02-29 10:50 pmSSE 4.1 5.1----30.39-------
2024-02-29 10:40 pm SE 4.1 5.1----30.40-------
2024-02-29 10:30 pmSSE 2.9 5.1----30.39-------
2024-02-29 10:20 pmSSE 5.1 7.0----30.39-------
2024-02-29 10:10 pmSSE 5.1 7.0----30.38-------
2024-02-29 10:00 pmSSE 5.1 8.0----30.39-0.02------
2024-02-29 09:50 pm S 5.1 7.0----30.39-------
2024-02-29 09:40 pmSSE 5.1 6.0----30.40-------
2024-02-29 09:30 pmSSE 4.1 6.0----30.40-------
2024-02-29 09:20 pm S 4.1 6.0----30.41-------
2024-02-29 09:10 pm S 4.1 6.0----30.42-------
2024-02-29 09:00 pm S 5.1 6.0----30.42+0.02------
2024-02-29 08:50 pm S 4.1 7.0----30.42-------
2024-02-29 08:40 pm S 5.1 7.0----30.42-------
2024-02-29 08:30 pm S 5.1 7.0----30.42-------
2024-02-29 08:20 pm S 5.1 7.0----30.42-------
2024-02-29 08:10 pmSSW 6.0 8.9----30.41-------
2024-02-29 08:00 pmWSW 7.0 13.0----30.41+0.01------
2024-02-29 07:50 pmWSW 8.0 14.0----30.42-------
2024-02-29 07:40 pmWSW 11.1 15.0----30.42-------
2024-02-29 07:30 pmWSW 13.0 15.9----30.42-------
2024-02-29 07:20 pmWSW 9.9 19.0----30.41-------
2024-02-29 07:10 pmWSW 14.0 22.9----30.41-------
2024-02-29 07:00 pmWSW 14.0 18.1----30.41+0.02------
2024-02-29 06:50 pmWSW 14.0 19.0----30.41-------